Orbital Elements at Epoch 2459200.5 (2020-Dec-17.0) TDB
Reference: JPL 20 (heliocentric ecliptic J2000)
Element | Value | Uncertainty (1-sigma) | Units |
e | .1712441503545513 | 8.1857e-08 | |
a | 3.139871688320578 | 2.5961e-08 | au |
q | 2.602187028831811 | 2.5589e-07 | au |
i | 16.44513434521087 | 9.8225e-06 | deg |
node | 15.64644340047466 | 1.5152e-05 | deg |
peri | 194.3535921050033 | 2.2686e-05 | deg |
M | 157.1914993087074 | 1.8308e-05 | deg |
tp | 2458313.154331377190 (2018-Jul-13.65433138) | 0.0001 | TDB |
period | 2032.19920993855 5.56 | 2.5204e-05 6.9e-08 | d yr |
n | .1771479873820469 | 2.1971e-09 | deg/d |
Q | 3.677556347809346 | 3.0407e-08 | au |
|
| | Orbit Determination Parameters
Additional Information
|